Weather History for Columbus, OH

Change the Weather History Date:

Tuesday, December 11, 2012

  Actual Average Record
Temperature  
Mean Temperature 33 °F 34 °F  
Max Temperature 36 °F 41 °F 66 °F (1931)
Min Temperature 29 °F 28 °F -9 °F (1917)
Degree Days  
Heating Degree Days 32 30  
Month to date heating degree days 200 315  
Since 1 July heating degree days 1317 1329  
Cooling Degree Days 0 0  
Month to date cooling degree days 0 0  
Year to date cooling degree days 1439 1024  
Moisture  
Dew Point 27 °F    
Average Humidity 74    
Maximum Humidity 89    
Minimum Humidity 59    
Precipitation  
Precipitation T in 0.10 in 1.26 in (1964)
Month to date precipitation 2.78 1.09  
Year to date precipitation 34.35 37.43  
Snow  
Snow T in 0.10 in 4.60 in (1960)
Month to date snowfall T 1.3  
Since 1 July snowfall 0.8 2.4  
Snow Depth 0.00 in    
Sea Level Pressure  
Sea Level Pressure 30.08 in    
Wind  
Wind Speed 9 mph (West)    
Max Wind Speed 15 mph    
Max Gust Speed 18 mph    
Visibility 9 miles    
Events Rain , Snow    
T = Trace of Precipitation, MM = Missing Value Source: NWS Daily Summary

Daily Weather History Graph

Daily Weather History Graph

Search for Another Location

Airport:

Trip Planner

Search our weather history database for the weather conditions in past years. The results will help you decide how hot, cold, wet, or windy it might be!

Date:

Astronomy

Dec. 11, 2012 Rise Set
Actual Time 7:43 AM EST 5:06 PM EST
Civil Twilight 7:13 AM EST 5:36 PM EST
Nautical Twilight 6:39 AM EST 6:10 PM EST
Astronomical Twilight 6:06 AM EST 6:43 PM EST
Moon 5:37 AM EST (12/11) 3:44 PM EST (12/11)
Length of Visible Light 10h 23m
Length of Day
9h 22m
Waning Crescent, 4% of the Moon is Illuminated
Dec 11
Waning Crescent
Dec 13
New
Dec 20
First Quarter
Dec 28
Full
Jan 4
Last Quarter

Hourly Weather History & Observations

Time (EST) Temp. Windchill Dew Point Humidity Pressure Visibility Wind Dir Wind Speed Gust Speed Precip Events Conditions
12:51 AM 35.1 °F 27.9 °F 30.0 °F 82% 29.91 in 9.0 mi WNW 9.2 mph - N/A   Overcast
1:51 AM 34.0 °F 26.0 °F 30.0 °F 85% 29.92 in 6.0 mi WNW 10.4 mph - N/A   Overcast
2:51 AM 34.0 °F 26.0 °F 30.0 °F 85% 29.94 in 7.0 mi West 10.4 mph - N/A   Overcast
3:51 AM 34.0 °F 27.2 °F 30.0 °F 85% 29.95 in 7.0 mi West 8.1 mph - N/A   Overcast
4:51 AM 34.0 °F 27.2 °F 30.9 °F 89% 29.96 in 7.0 mi West 8.1 mph - N/A   Overcast
5:51 AM 35.1 °F 27.4 °F 30.9 °F 85% 29.99 in 10.0 mi West 10.4 mph - N/A   Overcast
6:51 AM 35.1 °F 27.9 °F 30.0 °F 82% 30.00 in 10.0 mi WNW 9.2 mph - N/A   Overcast
7:51 AM 35.1 °F 27.4 °F 30.0 °F 82% 30.03 in 8.0 mi West 10.4 mph - N/A   Overcast
8:51 AM 35.1 °F 27.4 °F 30.0 °F 82% 30.06 in 8.0 mi West 10.4 mph - N/A   Overcast
9:06 AM 35.6 °F 28.0 °F 30.2 °F 81% 30.04 in 8.0 mi West 10.4 mph - N/A   Overcast
9:51 AM 35.1 °F 27.9 °F 28.9 °F 78% 30.09 in 9.0 mi WNW 9.2 mph - N/A   Overcast
10:39 AM 35.6 °F 29.2 °F 28.4 °F 75% 30.09 in 9.0 mi WNW 8.1 mph - 0.00 in   Small Hail
10:51 AM 35.1 °F 27.4 °F 30.0 °F 82% 30.11 in 7.0 mi West 10.4 mph - 0.00 in Rain , Snow Light Snow
11:51 AM 36.0 °F 28.5 °F 28.9 °F 76% 30.11 in 6.0 mi West 10.4 mph - 0.00 in Snow Light Snow
11:58 AM 35.6 °F 28.6 °F 28.4 °F 75% 30.09 in 6.0 mi WSW 9.2 mph - 0.00 in   Haze
12:51 PM 35.1 °F 26.9 °F 27.0 °F 72% 30.12 in 7.0 mi West 11.5 mph - 0.00 in Snow Light Snow
1:51 PM 35.1 °F 25.9 °F 26.1 °F 70% 30.12 in 7.0 mi West 13.8 mph - 0.00 in Snow Light Snow
2:51 PM 36.0 °F 28.5 °F 26.1 °F 67% 30.12 in 10.0 mi WSW 10.4 mph - N/A   Overcast
3:51 PM 36.0 °F 27.1 °F 24.1 °F 62% 30.14 in 10.0 mi West 13.8 mph - N/A   Overcast
4:51 PM 35.1 °F 27.9 °F 23.0 °F 61% 30.16 in 10.0 mi WSW 9.2 mph - N/A   Mostly Cloudy
5:51 PM 34.0 °F 26.0 °F 21.0 °F 59% 30.17 in 10.0 mi WSW 10.4 mph - N/A   Mostly Cloudy
6:51 PM 32.0 °F 26.4 °F 21.0 °F 64% 30.19 in 10.0 mi SW 5.8 mph - N/A   Scattered Clouds
7:51 PM 32.0 °F 25.6 °F 21.9 °F 66% 30.21 in 10.0 mi SW 6.9 mph - N/A   Scattered Clouds
8:51 PM 30.9 °F 26.2 °F 23.0 °F 72% 30.22 in 10.0 mi WSW 4.6 mph - N/A   Partly Cloudy
9:51 PM 30.0 °F 25.2 °F 23.0 °F 75% 30.23 in 10.0 mi SW 4.6 mph - N/A   Clear
10:51 PM 30.0 °F 25.2 °F 23.0 °F 75% 30.24 in 10.0 mi SW 4.6 mph - N/A   Clear
11:51 PM 28.9 °F 23.9 °F 23.0 °F 78% 30.26 in 10.0 mi SW 4.6 mph - N/A   Clear